CZ-4 DEB, 26211

Orbit data source: Space-Track

CZ-4 DEB, 26211 is space debris in SSO originally from a launch on Thu, 14 Oct 1999 UTC launched from the Taiyaun Space Center, China (TSC). Debris objects in space refer to the collection of defunct objects orbiting the Earth. Examples of debris include non-operational satellites, rocket bodies, and fragments generated from explosions, collisions, or faulty payload assembly.

Loading next visibility...
Identifier
26211, 1999-057CZ
Orbit
SSO
Country
Flag of CNCN / PRC
Related business
Manufacturer
Unknown
Mission
Spacecraft
Bus & Motor
Unknown
Mass
Unknown
Launch date (UTC)
1999-10-14 (26 years ago)
Launch vehicle
Unknown
Launch site
Taiyaun Space Center, China (TSC)
Object type
Payload
Rocket body
Debris
Shape & HBR
Unknown shape, 0.1 m
Radar Cross Section
Small (<0.1 m²)

Expand to show TLE details & history
Last TLE update: 1 day ago

TLE from 1 day ago
0 CZ-4 DEB
1 26211U 99057CZ  25304.80087005  .00000301  00000-0  29567-3 0  9990
2 26211  98.9568  28.4541 0541847 105.0514  21.6645 13.33247343243723
Epoch: 2025-10-31T19:13Z
TLE epoch observation values (Epoch: 2025-10-31T19:13:15.172Z)
Latitude
50.09101°
Longitude
-109.39664°
Altitude
767.281 km
Speed
7.66 km/s
True Right ascension
14h 37m 01s
True Declination
49° 55' 19"
Sunlit
Object was in daylight at epoch
Visualization orbit readout
Latitude
Unknown
Longitude
Unknown
Altitude
Unknown
Speed
Unknown
Apparent Right ascension
Unknown
Apparent Declination
Unknown
Sunlit
N/A
Visualization observer readout
Local Sidereal Time
14:34:04
Azimuth
Unknown
Elevation
Unknown
Doppler factor
Unknown
Orbital elements
Apogee altitude
1,538.739 km
Perigee altitude
724.89 km
Semi-major axis
7,509.952 km
Eccentricity
0.05418
Inclination
98.9568°
RAAN
28.4541°
Arg. of periapsis
105.0514°
True anomaly
24.10951°
Mean anomaly
21.6645°
Eccentric anomaly
22.87111°
Mean motion
3.33494 °/min
Orbital period
107.95 mins
BSTAR
0.00029567
Loading maneuver chart data...
Computing Atmospheric mass density...
Loading historical data...
Loading historical data...
Loading historical data...
Loading historical data...
Loading historical data...
Loading historical data...
Loading historical data...

Documentation

Showing up to 5 results
|